Date,TemperatureHighF,TemperatureAvgF,TemperatureLowF,DewpointHighF,DewpointAvgF,DewpointLowF,HumidityHigh,HumidityAvg,HumidityLow,PressureMaxIn,PressureMinIn,WindSpeedMaxMPH,WindSpeedAvgMPH,GustSpeedMaxMPH,PrecipitationSumIn
2013-2-1,9.6,-1.4,-10.9,0.5,-20.0,-29.6,66,41,22,30.55,30.26,10,4,16,0.00
2013-2-2,14.3,7.4,2.9,5.6,-28.4,-99.9,73,40,34,30.39,29.94,5,1,7,0.00
2013-2-3,18.2,12.3,4.4,4.6,-1.2,-99.9,71,56,36,30.08,29.94,12,4,16,0.00
2013-2-4,21.0,12.0,4.6,7.1,-3.7,-12.5,73,51,24,30.05,29.76,7,2,11,0.00
2013-2-5,32.2,22.6,10.3,28.3,14.4,0.5,99,72,50,30.08,29.67,10,5,14,0.00
2013-2-6,30.1,17.4,2.8,20.8,9.0,-7.2,85,69,59,30.10,29.92,9,3,14,0.00
2013-2-7,27.2,25.0,20.4,24.3,19.6,16.0,93,80,67,30.24,29.97,7,3,13,0.00
2013-2-8,27.7,23.8,22.0,18.2,13.5,9.2,76,65,48,30.36,30.21,7,3,11,0.00
2013-2-9,32.4,28.0,24.6,27.8,23.2,18.3,96,82,72,30.21,29.92,9,5,15,0.00
2013-2-10,34.2,31.1,27.7,34.2,24.6,-99.9,100,93,86,29.93,29.28,11,5,16,0.00
2013-2-11,30.6,25.0,16.7,30.6,15.5,-99.9,100,75,59,30.04,29.35,16,5,21,0.00
2013-2-12,36.2,25.7,15.6,20.4,14.1,5.8,77,62,46,30.05,29.82,8,4,13,0.10
2013-2-13,40.7,29.4,18.3,33.0,20.6,11.8,98,71,45,29.82,29.58,7,3,10,0.22
2013-2-14,35.9,27.3,13.3,32.9,15.8,-3.6,100,65,36,30.17,29.58,10,5,14,0.03
2013-2-15,22.1,11.0,3.3,-2.6,-5.7,-9.3,61,48,28,30.29,30.17,10,6,14,0.00
2013-2-16,19.9,9.3,1.6,1.5,-4.1,-9.1,64,55,37,30.25,30.10,6,3,7,0.00
2013-2-17,31.4,21.3,7.5,18.6,9.2,-3.9,72,60,46,30.11,29.64,12,6,18,0.00
2013-2-18,34.1,22.7,5.1,30.4,12.6,-5.8,86,65,54,29.82,29.56,17,8,31,0.00
2013-2-19,9.1,3.0,-3.5,-5.2,-13.8,-19.6,61,45,30,30.35,29.82,17,10,24,0.00
2013-2-20,19.2,4.6,-8.1,-5.7,-13.9,-23.0,49,42,25,30.45,30.35,7,3,8,0.00
2013-2-21,20.8,13.4,3.5,4.7,-1.9,-7.7,62,50,38,30.43,30.06,10,5,14,0.00
2013-2-22,31.5,22.9,18.3,19.0,15.0,5.1,87,72,48,30.06,29.88,10,4,13,0.06
2013-2-23,30.4,20.7,15.5,15.1,12.1,7.0,80,70,49,29.98,29.88,6,3,9,0.00
2013-2-24,36.6,23.5,10.6,14.1,9.5,0.9,74,56,36,30.11,29.97,4,2,7,0.04
2013-2-25,39.6,29.5,22.4,23.6,19.4,14.0,85,67,44,30.12,30.05,4,1,6,0.05
2013-2-26,37.9,29.2,20.8,21.9,19.8,15.7,86,69,48,30.06,29.88,9,3,14,0.00
2013-2-27,41.8,32.1,27.2,21.1,19.1,16.3,73,60,39,30.03,29.87,9,4,18,0.00
2013-2-28,31.3,28.0,23.5,17.5,14.3,9.7,66,56,49,30.22,30.03,7,3,14,0.00